DECAYED
Showing default

PROGRESS MS-29, 62030 (Decayed)

Orbit data source: Space-Track

PROGRESS MS-29, 62030 was a payload satellite owned by RKKE (CIS) in LEO that was launched on Thu, 21 Nov 2024 UTC via a SOYUZ-2-1A launch vehicle from the Tyuratam Missile And Space Complex (TTMTR). Payload-class satellites include a variety of spacecraft equipped with specific instruments for various scientific and technological missions. These include communications satellites like Starlink; space stations such as the ISS; scientific satellites like the Hubble; Earth observation satellites from companies like Planet Labs, Umbra, and HawkEye 360; GPS; miniature CubeSats for education and research; and military/defense satellites.

Loading next visibility...
Identifier
62030, 2024-215A
Orbit
Decayed
Last TLE update
4 days ago
Origin
Manufacturer
TsSKB-Progress
Mission
Decayed Civil Spaceship
Bus & Motor
7K-TGM, 11D428A
Mass
7,500 kg wet, 4,325 kg dry
Launch date (UTC)
2024-11-21 (7 months ago)
Launch vehicle
SOYUZ-2-1A
Launch site
Tyuratam Missile And Space Complex (TTMTR)
Object type
Payload
Rocket body
Debris
Shape & HBR
Cyl + Sphere + Cone + 2 Pan, 7.9 m
Radar Cross Section
19.615 m², Medium (>0.1 m² and < 1m²)

Expand to show TLE details & history

TLE from 4 days ago
0 PROGRESS MS-29
1 62030U 24215A   25182.60262425  .00005250  00000-0  98795-4 0  9994
2 62030  51.6362 235.6237 0002078 320.5297 198.2707 15.50319249 34548
Epoch: 2025-07-01T14:27Z
TLE epoch observation values (Epoch: 2025-07-01T14:27:46.735Z)
Latitude
16.50256°
Longitude
-94.70247°
Altitude
417.218 km
Speed
7.663 km/s
True Right ascension
02h 48m 33s
True Declination
16° 24' 16"
Sunlit
Object was in daylight at epoch
Visualization orbit readout
Visualization observer readout
Orbital elements
Apogee altitude
417.714 km
Perigee altitude
414.89 km
Semi-major axis
6,794.439 km
Eccentricity
0.00021
Inclination
51.6362°
RAAN
235.6237°
Arg. of periapsis
320.5297°
True anomaly
Unknown
Mean anomaly
198.2707°
Eccentric anomaly
Unknown
Mean motion
3.87537 °/min
Orbital period
92.89 mins
BSTAR
0.000098795
Loading maneuver chart data...
Loading SW <> Apogee altitude chart data...
Loading historical data...
Loading historical data...
Loading historical data...
Loading historical data...
Loading historical data...
Loading historical data...
Loading historical data...
Other satellites on launch #215 in the year 2024 (2024-11-21 UTC)

PROGRESS MS-29 Visibility forecast

Observer location: undefined°, undefined°

Span
Click to sort rows by Start time (UTC) header in descending order
Start Az.
Max El. time (UTC)
Max El. Az.
Max El.
End time (UTC)
End Az.
4 mins2025-07-06 03:46:42.524Z170.342° S2025-07-06 03:48:42.524Z130.825° SE16.256°2025-07-06 03:50:42.524Z91.488° ESE
4 mins2025-07-06 05:23:42.524Z264.104° W2025-07-06 05:24:42.524Z296.387° NW35.844°2025-07-06 05:27:42.524Z40.792° NE
4 mins2025-07-06 10:16:42.524Z350.4° N2025-07-06 10:17:42.524Z18.672° NNE23.783°2025-07-06 10:20:42.524Z85.253° E
5 mins2025-07-06 11:52:42.524Z285.414° WNW2025-07-06 11:54:42.524Z225.011° WSW32.912°2025-07-06 11:57:42.524Z153.067° SSE
|